Change the Weather History Date:

Wednesday, February 8, 2012

  Actual Average Record
Temperature  
Mean Temperature 66 °F -  
Max Temperature 77 °F 64 °F 86 °F (2006)
Min Temperature 55 °F 42 °F 33 °F (2004)
Cooling Degree Days 1    
Growing Degree Days 16 (Base 50)    
Moisture  
Dew Point 34 °F    
Average Humidity 35    
Maximum Humidity 54    
Minimum Humidity 18    
Precipitation  
Precipitation 0.00 in - - ()
Sea Level Pressure  
Sea Level Pressure 30.06 in    
Wind  
Wind Speed 6 mph (SE)    
Max Wind Speed 10 mph    
Max Gust Speed -    
Visibility 11 miles    
Events      
Averages and records for this station are not official NWS values.
T = Trace of Precipitation, MM = Missing Value Source: NWS Daily Summary

Daily Weather History Graph

Daily Weather History Graph

Search for Another Location

Airport or City:

Trip Planner

Search our weather history database for the weather conditions in past years. The results will help you decide how hot, cold, wet, or windy it might be!

Date:

Astronomy

Feb. 08, 2012 Rise Set
Actual Time 7:17 AM MST 6:04 PM MST
Civil Twilight 6:51 AM MST 6:30 PM MST
Nautical Twilight 6:22 AM MST 6:59 PM MST
Astronomical Twilight 5:53 AM MST 7:28 PM MST
Moon 7:21 PM MST (2/8) 7:28 AM MST (2/8)
Length of Visible Light 11h 38m
Length of Day
10h 47m
Full, 99% of the Moon is Illuminated
Feb 8
Full
Feb 14
Last Quarter
Feb 21
New
Feb 29
First Quarter
Mar 8
Full

Hourly Weather History & Observations

Time (MST) Temp. Dew Point Humidity Pressure Visibility Wind Dir Wind Speed Gust Speed Precip Events Conditions
12:15 AM 62.6 °F 33.8 °F 34% 29.98 in 10.0 mi SE 9.2 mph - N/A   Clear
12:35 AM 60.8 °F 33.8 °F 36% 29.99 in 10.0 mi SE 10.4 mph - N/A   Clear
12:55 AM 60.8 °F 33.8 °F 36% 29.99 in 10.0 mi SE 10.4 mph - N/A   Clear
1:15 AM 60.8 °F 33.8 °F 36% 29.99 in 10.0 mi SE 10.4 mph - N/A   Clear
1:35 AM 60.8 °F 33.8 °F 36% 29.99 in 10.0 mi SE 10.4 mph - N/A   Clear
1:55 AM 60.8 °F 33.8 °F 36% 29.99 in 10.0 mi SSE 9.2 mph - N/A   Clear
2:15 AM 59.0 °F 33.8 °F 39% 29.99 in 10.0 mi SE 10.4 mph - N/A   Clear
2:35 AM 59.0 °F 33.8 °F 39% 29.99 in 10.0 mi SE 8.1 mph - N/A   Clear
2:55 AM 55.4 °F 33.8 °F 44% 29.99 in 10.0 mi SE 6.9 mph - N/A   Clear
3:15 AM 55.4 °F 35.6 °F 47% 30.00 in 10.0 mi SSE 5.8 mph - N/A   Clear
3:35 AM 55.4 °F 33.8 °F 44% 30.00 in 10.0 mi SSE 5.8 mph - N/A   Clear
3:55 AM 55.4 °F 33.8 °F 44% 30.00 in 10.0 mi East 4.6 mph - N/A   Clear
4:15 AM 55.4 °F 33.8 °F 44% 30.01 in 7.0 mi SE 3.5 mph - N/A   Clear
4:35 AM 55.4 °F 33.8 °F 44% 30.01 in 10.0 mi Calm Calm - N/A   Clear
4:55 AM 55.4 °F 33.8 °F 44% 30.02 in 10.0 mi North 6.9 mph - N/A   Clear
5:15 AM 55.4 °F 33.8 °F 44% 30.03 in 10.0 mi Calm Calm - N/A   Clear
6:47 AM 55.4 °F 33.8 °F 44% 30.05 in 20.0 mi Calm Calm - N/A   Overcast
7:47 AM 55.4 °F 39.2 °F 54% 30.07 in 30.0 mi ESE 3.5 mph - N/A   Mostly Cloudy
8:47 AM 55.4 °F 37.4 °F 51% 30.10 in 30.0 mi SSE 5.8 mph - N/A   Mostly Cloudy
9:47 AM 60.8 °F 39.2 °F 45% 30.12 in 35.0 mi Calm Calm - N/A   Mostly Cloudy
10:47 AM 68.0 °F 33.8 °F 28% 30.12 in 35.0 mi SE 9.2 mph - N/A   Mostly Cloudy
12:47 PM 75.2 °F 32.0 °F 21% 30.07 in 35.0 mi SE 4.6 mph - N/A   Mostly Cloudy
1:47 PM 77.0 °F 32.0 °F 19% 30.04 in 35.0 mi ESE 3.5 mph - N/A   Mostly Cloudy
2:47 PM 77.0 °F 32.0 °F 19% 30.04 in 35.0 mi Calm Calm - N/A   Mostly Cloudy
3:47 PM 77.0 °F 30.2 °F 18% 30.03 in 35.0 mi Calm Calm - N/A   Mostly Cloudy
4:47 PM 77.0 °F 30.2 °F 18% 30.03 in 35.0 mi North 5.8 mph - N/A   Mostly Cloudy
5:55 PM 77.0 °F 30.2 °F 18% 30.03 in 20.0 mi NNW 3.5 mph - N/A   Partly Cloudy
6:47 PM 69.8 °F 30.2 °F 23% 30.05 in 20.0 mi NNW 3.5 mph - N/A   Partly Cloudy
7:47 PM 68.0 °F 30.2 °F 24% 30.08 in 20.0 mi Calm Calm - N/A   Clear
7:55 PM 68.0 °F 32.0 °F 26% 30.08 in 10.0 mi NNW 3.5 mph - N/A   Clear
8:15 PM 66.2 °F 32.0 °F 28% 30.09 in 10.0 mi Calm Calm - N/A   Clear
8:35 PM 62.6 °F 33.8 °F 34% 30.10 in 10.0 mi Calm Calm - N/A   Clear
8:47 PM 64.4 °F 35.6 °F 34% 30.11 in 20.0 mi Calm Calm - N/A   Clear
8:55 PM 62.6 °F 32.0 °F 32% 30.11 in 10.0 mi Calm Calm - N/A   Clear
9:15 PM 62.6 °F 32.0 °F 32% 30.11 in 10.0 mi Calm Calm - N/A   Clear
9:35 PM 60.8 °F 32.0 °F 34% 30.12 in 10.0 mi Calm Calm - N/A   Clear
9:55 PM 60.8 °F 32.0 °F 34% 30.12 in 10.0 mi Calm Calm - N/A   Clear
10:15 PM 60.8 °F 33.8 °F 36% 30.13 in 10.0 mi SSE 5.8 mph - N/A   Clear
10:35 PM 60.8 °F 33.8 °F 36% 30.13 in 10.0 mi Calm Calm - N/A   Clear
10:55 PM 62.6 °F 37.4 °F 39% 30.13 in 10.0 mi Calm Calm - N/A   Clear
11:15 PM 60.8 °F 33.8 °F 36% 30.13 in 10.0 mi Calm Calm - N/A   Clear
11:35 PM 60.8 °F 35.6 °F 39% 30.13 in 10.0 mi Calm Calm - N/A   Clear
11:55 PM 59.0 °F 33.8 °F 39% 30.14 in 10.0 mi Calm Calm - N/A   Clear